TimeMST,TemperatureF,Dew PointF,Humidity,Sea Level PressureIn,VisibilityMPH,Wind Direction,Wind SpeedMPH,Gust SpeedMPH,PrecipitationIn,Events,Conditions,WindDirDegrees,DateUTC
12:15 AM,20.3,8.4,60,30.36,10.0,North,3.5,-,N/A,,Clear,10,2012-11-20 07:15:00
12:35 AM,21.6,10.2,62,30.35,10.0,Calm,Calm,-,N/A,,Clear,0,2012-11-20 07:35:00
12:55 AM,17.1,5.4,60,30.35,10.0,NNE,3.5,-,N/A,,Clear,20,2012-11-20 07:55:00
1:15 AM,17.2,7.2,65,30.35,10.0,NNE,4.6,-,N/A,,Clear,20,2012-11-20 08:15:00
1:35 AM,19.4,9.3,65,30.35,10.0,NE,5.8,-,N/A,,Clear,50,2012-11-20 08:35:00
5:15 AM,16.0,6.4,66,30.35,10.0,Calm,Calm,-,N/A,,Clear,0,2012-11-20 12:15:00
5:35 AM,16.5,7.7,68,30.35,10.0,NNE,3.5,-,N/A,,Clear,30,2012-11-20 12:35:00
5:55 AM,16.2,5.7,64,30.37,10.0,Calm,Calm,-,N/A,,Clear,0,2012-11-20 12:55:00
6:15 AM,16.5,5.9,63,30.37,10.0,South,5.8,-,N/A,,Clear,180,2012-11-20 13:15:00
6:35 AM,15.6,6.3,67,30.37,10.0,Calm,Calm,-,N/A,,Clear,0,2012-11-20 13:35:00
6:55 AM,13.1,4.1,67,30.37,10.0,North,4.6,-,N/A,,Clear,350,2012-11-20 13:55:00
7:15 AM,17.1,7.7,67,30.38,10.0,North,8.1,-,N/A,,Clear,350,2012-11-20 14:15:00
7:35 AM,23.0,10.9,60,30.38,10.0,NNE,4.6,-,N/A,,Clear,20,2012-11-20 14:35:00
7:55 AM,26.4,12.2,55,30.38,10.0,Calm,Calm,-,N/A,,Clear,0,2012-11-20 14:55:00
8:15 AM,34.0,15.8,47,30.38,10.0,Calm,Calm,-,N/A,,Clear,0,2012-11-20 15:15:00
8:35 AM,40.3,18.7,42,30.38,10.0,North,4.6,-,N/A,,Clear,10,2012-11-20 15:35:00
8:55 AM,44.4,19.0,36,30.39,10.0,SSE,3.5,-,N/A,,Clear,150,2012-11-20 15:55:00
9:15 AM,43.7,18.5,36,30.39,10.0,South,3.5,-,N/A,,Clear,170,2012-11-20 16:15:00
9:35 AM,47.1,19.4,33,30.39,10.0,SSE,3.5,-,N/A,,Clear,160,2012-11-20 16:35:00
9:55 AM,49.6,19.4,30,30.39,10.0,South,4.6,-,N/A,,Clear,180,2012-11-20 16:55:00
10:15 AM,51.1,19.4,29,30.39,10.0,SSE,3.5,-,N/A,,Clear,160,2012-11-20 17:15:00
10:35 AM,52.2,19.4,28,30.38,10.0,Calm,Calm,-,N/A,,Clear,0,2012-11-20 17:35:00
10:55 AM,53.8,19.6,26,30.37,10.0,Calm,Calm,-,N/A,,Clear,0,2012-11-20 17:55:00
11:15 AM,56.7,18.7,23,30.35,10.0,Calm,Calm,-,N/A,,Clear,0,2012-11-20 18:15:00
11:35 AM,58.3,18.3,21,30.35,10.0,WNW,3.5,-,N/A,,Clear,290,2012-11-20 18:35:00
12:15 PM,61.7,14.2,16,30.32,10.0,Calm,Calm,-,N/A,,Clear,0,2012-11-20 19:15:00
12:35 PM,63.0,13.3,14,30.31,10.0,Calm,Calm,-,N/A,,Clear,0,2012-11-20 19:35:00
12:55 PM,63.0,11.7,13,30.29,10.0,WSW,5.8,-,N/A,,Clear,250,2012-11-20 19:55:00
1:15 PM,64.8,11.1,12,30.29,10.0,West,3.5,-,N/A,,Clear,280,2012-11-20 20:15:00
1:35 PM,64.2,8.2,11,30.28,10.0,NW,3.5,-,N/A,,Clear,320,2012-11-20 20:35:00
1:55 PM,64.9,7.5,10,30.28,10.0,Calm,Calm,-,N/A,,Clear,0,2012-11-20 20:55:00
2:15 PM,65.3,6.4,10,30.27,10.0,Calm,Calm,-,N/A,,Clear,0,2012-11-20 21:15:00
2:35 PM,65.7,7.3,10,30.27,10.0,Calm,Calm,-,N/A,,Clear,0,2012-11-20 21:35:00
2:55 PM,65.8,7.3,10,30.26,10.0,Calm,Calm,-,N/A,,Clear,0,2012-11-20 21:55:00
3:15 PM,65.3,7.3,10,30.26,10.0,South,4.6,-,N/A,,Clear,180,2012-11-20 22:15:00
3:35 PM,64.8,7.7,11,30.26,10.0,SW,6.9,-,N/A,,Clear,230,2012-11-20 22:35:00
3:55 PM,64.2,9.3,12,30.27,10.0,SSW,4.6,-,N/A,,Clear,210,2012-11-20 22:55:00
4:15 PM,62.4,10.2,13,30.27,10.0,South,9.2,-,N/A,,Clear,170,2012-11-20 23:15:00
4:35 PM,59.4,8.6,13,30.27,10.0,South,8.1,-,N/A,,Clear,170,2012-11-20 23:35:00
4:55 PM,54.9,7.0,15,30.27,10.0,SSE,5.8,-,N/A,,Clear,160,2012-11-20 23:55:00
5:15 PM,50.4,5.2,16,30.27,10.0,South,6.9,-,N/A,,Clear,170,2012-11-21 00:15:00
5:55 PM,44.2,5.5,20,30.29,10.0,South,4.6,-,N/A,,Clear,190,2012-11-21 00:55:00
6:15 PM,44.4,7.7,22,30.29,10.0,Calm,Calm,-,N/A,,Clear,0,2012-11-21 01:15:00
6:35 PM,44.8,8.6,23,30.29,10.0,Calm,Calm,-,N/A,,Clear,0,2012-11-21 01:35:00
6:55 PM,46.6,9.0,22,30.29,10.0,West,4.6,-,N/A,,Clear,270,2012-11-21 01:55:00
7:15 PM,39.2,5.7,25,30.30,10.0,Calm,Calm,-,N/A,,Clear,0,2012-11-21 02:15:00
7:35 PM,35.6,5.5,28,30.31,10.0,Calm,Calm,-,N/A,,Clear,0,2012-11-21 02:35:00
7:55 PM,34.9,4.3,28,30.31,10.0,North,3.5,-,N/A,,Clear,360,2012-11-21 02:55:00
8:15 PM,31.5,3.6,31,30.31,10.0,North,6.9,-,N/A,,Clear,10,2012-11-21 03:15:00
8:35 PM,31.6,3.4,30,30.31,10.0,NE,5.8,-,N/A,,Clear,40,2012-11-21 03:35:00
8:55 PM,30.9,4.6,33,30.31,10.0,NE,4.6,-,N/A,,Clear,50,2012-11-21 03:55:00
9:15 PM,30.7,4.1,32,30.31,10.0,NE,4.6,-,N/A,,Clear,40,2012-11-21 04:15:00
9:35 PM,29.5,3.4,33,30.32,10.0,Calm,Calm,-,N/A,,Clear,0,2012-11-21 04:35:00
9:55 PM,27.1,2.1,34,30.31,10.0,North,4.6,-,N/A,,Clear,360,2012-11-21 04:55:00
10:15 PM,27.5,2.7,35,30.32,10.0,NNW,3.5,-,N/A,,Clear,330,2012-11-21 05:15:00
10:35 PM,26.6,2.7,36,30.31,10.0,NNW,5.8,-,N/A,,Clear,330,2012-11-21 05:35:00
10:55 PM,23.9,0.7,37,30.31,10.0,North,3.5,-,N/A,,Clear,350,2012-11-21 05:55:00
11:15 PM,22.3,0.7,39,30.31,10.0,North,4.6,-,N/A,,Clear,360,2012-11-21 06:15:00
11:35 PM,23.0,2.8,42,30.31,10.0,Calm,Calm,-,N/A,,Clear,0,2012-11-21 06:35:00
11:55 PM,21.9,1.8,42,30.31,10.0,Calm,Calm,-,N/A,,Clear,0,2012-11-21 06:55:00